THORAD AGENA D DEB, 10136

Orbit data source: Space-Track

THORAD AGENA D DEB, 10136 is space debris in SSO originally from a launch on Wed, 08 Apr 1970 UTC launched from the Air Force Western Test Range (AFWTR). Debris objects in space refer to the collection of defunct objects orbiting the Earth. Examples of debris include non-operational satellites, rocket bodies, and fragments generated from explosions, collisions, or faulty payload assembly.

Loading next visibility...
Identifier
10136, 1970-025NQ
Orbit
SSO
Country
Flag of USUS
Related business
Manufacturer
Unknown
Mission
Spacecraft
Bus & Motor
Unknown
Mass
Unknown
Launch date (UTC)
1970-04-08 (56 years ago)
Launch vehicle
Unknown
Launch site
Air Force Western Test Range (AFWTR)
Object type
Payload
Rocket body
Debris
Shape & HBR
Unknown shape, 0.3 m
Radar Cross Section
Medium (>0.1 m² and <1 m²)

Expand to show TLE details & history
Last TLE update: 5 hours ago

TLE from 5 hours ago
0 THORAD AGENA D DEB
1 10136U 70025NQ  26257.16815808  .00000001  00000-0  73407-4 0  9990
2 10136 100.1762 235.3482 0001660 115.1024 258.4918 13.52044984782525
Epoch: 2026-09-14T04:02Z
TLE epoch observation values (Epoch: 2026-09-14T04:02:08.858Z)
Latitude
13.32554°
Longitude
179.23475°
Altitude
1,067.02 km
Speed
7.319 km/s
True Right ascension
15h 31m 41s
True Declination
13° 15' 07"
Sunlit
Object was in daylight at epoch
Visualization orbit readout
Latitude
Unknown
Longitude
Unknown
Altitude
Unknown
Speed
Unknown
Apparent Right ascension
Unknown
Apparent Declination
Unknown
Sunlit
N/A
Visualization observer readout
Local Sidereal Time
01:14:25
Azimuth
Unknown
Elevation
Unknown
Doppler factor
Unknown
Orbital elements
Apogee altitude
1,063.303 km
Perigee altitude
1,060.833 km
Semi-major axis
7,440.205 km
Eccentricity
0.00017
Inclination
100.1762°
RAAN
235.3482°
Arg. of periapsis
115.1024°
True anomaly
258.47316°
Mean anomaly
258.4918°
Eccentric anomaly
258.48248°
Mean motion
3.38194 °/min
Orbital period
106.45 mins
BSTAR
0.000073407
Loading maneuver chart data...
Computing Atmospheric mass density...

Documentation

Showing up to 5 results
|